Location: Hilton Head Island
(32.2163°N, 80.7526°W)
Time: 00:59:36
(UTC-05:00)

Vanguard 2 Rocket - Pass Details

Date: 20 February 2026
Orbit: 553 x 3287 km, 32.9° (Epoch: 5 March)

Event Time Altitude Azimuth Distance (km) Brightness Sun altitude
Rises 19:32:37 0° 279° (W) 5,178 12.4 -17.4°
Reaches altitude 10° 19:38:23 10° 260° (W) 3,539 11.1 -18.6°
Maximum altitude 19:42:41 15° 229° (SW) 2,702 9.9 -19.5°
Drops below altitude 10° 19:46:06 10° 197° (SSW) 2,664 9.5 -20.3°
Sets 19:49:26 0° 172° (S) 3,254 9.7 -21.0°
